Airfield :
LOGIN :

Register | Disclaimer

   EN    FR    IT 

 










Legend :    VFR   Marginal VFR   IFR   Intensive IFR   Very Intensive IFR
Visi :
Ceiling :
>= 8 km
>= 3000ft
5 to 8 km
1000 to 3000 ft
1500m to 5 km
500 to 1000 ft
800 to 1500m
200 to 500 ft
< 800m
< 200 ft
Symbols :   Thunderstorms  Fog  Heavy snow  Heavy precipitations  Wind > 20 kt
SIGMETs :     Misc.  Thunderstorms  Icing  Turbulence  Mountain Waves  Volcanic Ashes







- Airport Elevation : 36 ft
- IATA code : LTQ
- Download approach charts


LFAT - Le Touquet

CURRENT METAR :
  • 171100Z AUTO 15008KT CAVOK 13/04 Q1018 NOSIG

EXPIRED METARs :
  • 171030Z AUTO 14007KT CAVOK 12/04 Q1018 NOSIG
  • 171000Z AUTO 14007KT CAVOK 10/04 Q1018 NOSIG
  • 170930Z AUTO 12009KT CAVOK 08/04 Q1018 BECMG 18010KT
  • 170900Z AUTO 12008KT CAVOK 07/03 Q1018 NOSIG
  • 170830Z AUTO 12009KT CAVOK 06/03 Q1018 NOSIG

TAF TAF LFAT
Valid from the 17 at 09:00 until the 17 at 18:00 UTC


170800Z 1709/1718 12008KT 8000 NSC
BECMG 1711/1714 18010KT
ATIS : +33 3 21 06 62 84
No reported NOTAMs for that airfield.



MET'MAP, your aeronautical weather chart ! - Copyright ORBIFLY December 2007 - Disclaimer

ORBIFLY MET'MAP TEAM :

Programming & Development : Alexandra Zaïnal
Concept & Development : Baudouin d'Aumeries
Co-Development & Prog : Marc-Olivier Méhu
Technical & hardware support : Manuel Goepfert

Contact : metmap@orbifly.com




SOURCES & CREDITS :

   NOAA